"read_dt","SO2 (ppb)","flags","PMT voltage (V)","lamp voltage (V)","lamp intensity (Hz)","internal temp (C)","react chamber temp (C)","sample flow (l/min)","pres (mmHg)","SO2 bkg (ppb)","SO2 coefficient"
2014-08-21 00:00:00,1887E-3,5C000000,-0724,0827,12153,033.3,045.7,0.465,722.4,01.20,0.508
2014-08-21 00:01:00,1768E-3,5C000000,-0724,0827,12307,033.3,045.7,0.465,722.3,01.20,0.508
2014-08-21 00:02:00,1948E-3,5C000000,-0724,0826,12048,033.3,045.7,0.465,722.4,01.20,0.508
2014-08-21 00:03:00,1839E-3,5C000000,-0724,0827,12312,033.3,045.7,0.465,722.2,01.20,0.508
2014-08-21 00:04:00,1832E-3,5C000000,-0724,0827,12152,033.2,045.7,0.465,722.3,01.20,0.508
2014-08-21 00:05:00,1953E-3,5C000000,-0724,0826,12248,033.3,045.7,0.465,722.4,01.20,0.508
2014-08-21 00:06:00,1893E-3,5C000000,-0724,0827,12289,033.2,045.7,0.465,722.5,01.20,0.508
2014-08-21 00:07:00,1831E-3,5C000000,-0724,0828,12284,033.2,045.7,0.465,722.5,01.20,0.508
2014-08-21 00:08:00,1855E-3,5C000000,-0724,0827,12138,033.2,045.7,0.465,722.6,01.20,0.508
2014-08-21 00:09:00,1892E-3,5C000000,-0724,0826,12085,033.2,045.7,0.466,722.6,01.20,0.508
2014-08-21 00:10:00,1925E-3,5C000000,-0724,0826,12238,033.2,045.7,0.465,722.6,01.20,0.508
2014-08-21 00:11:00,1825E-3,5C000000,-0724,0826,12213,033.2,045.7,0.465,722.7,01.20,0.508
2014-08-21 00:12:00,1892E-3,5C000000,-0724,0827,12300,033.2,045.7,0.465,722.5,01.20,0.508
2014-08-21 00:13:00,1888E-3,5C000000,-0724,0827,12228,033.2,045.7,0.465,722.6,01.20,0.508
2014-08-21 00:14:00,1811E-3,5C000000,-0724,0826,12113,033.2,045.7,0.465,722.7,01.20,0.508
2014-08-21 00:15:00,1643E-3,5C000000,-0724,0828,12282,033.2,045.7,0.466,722.7,01.20,0.508
2014-08-21 00:16:00,1975E-3,5C000000,-0724,0827,12250,033.2,045.6,0.466,722.7,01.20,0.508
2014-08-21 00:17:00,1889E-3,5C000000,-0724,0827,12046,033.2,045.6,0.465,722.8,01.20,0.508
2014-08-21 00:18:00,1897E-3,5C000000,-0724,0827,12229,033.2,045.7,0.465,722.8,01.20,0.508
2014-08-21 00:19:00,1866E-3,5C000000,-0724,0827,12194,033.2,045.7,0.465,722.9,01.20,0.508
2014-08-21 00:20:00,1814E-3,5C000000,-0724,0826,12005,033.2,045.7,0.465,722.9,01.20,0.508
2014-08-21 00:21:00,1774E-3,5C000000,-0724,0828,12213,033.2,045.7,0.466,723.0,01.20,0.508
2014-08-21 00:22:00,1798E-3,5C000000,-0724,0827,11969,033.1,045.6,0.466,723.0,01.20,0.508
2014-08-21 00:23:00,1877E-3,5C000000,-0724,0827,12338,033.1,045.7,0.466,723.0,01.20,0.508
2014-08-21 00:24:00,1875E-3,5C000000,-0724,0827,12021,033.1,045.7,0.465,723.0,01.20,0.508
2014-08-21 00:25:00,1992E-3,5C000000,-0724,0827,12129,033.1,045.7,0.465,723.1,01.20,0.508
2014-08-21 00:26:00,1939E-3,5C000000,-0724,0827,12167,033.1,045.7,0.465,723.0,01.20,0.508
2014-08-21 00:27:00,1828E-3,5C000000,-0724,0825,12217,033.1,045.7,0.466,723.0,01.20,0.508
2014-08-21 00:28:00,1920E-3,5C000000,-0724,0826,12282,033.1,045.7,0.466,723.0,01.20,0.508
2014-08-21 00:29:00,1875E-3,5C000000,-0724,0826,12191,033.1,045.7,0.466,723.1,01.20,0.508
2014-08-21 00:30:00,1887E-3,5C000000,-0724,0827,12376,033.1,045.6,0.466,723.1,01.20,0.508
2014-08-21 00:31:00,1801E-3,5C000000,-0724,0827,12184,033.1,045.6,0.466,723.1,01.20,0.508
2014-08-21 00:32:00,1839E-3,5C000000,-0724,0826,12196,033.1,045.6,0.465,723.0,01.20,0.508
2014-08-21 00:33:00,1812E-3,5C000000,-0724,0826,12370,033.1,045.7,0.465,723.1,01.20,0.508
2014-08-21 00:34:00,1782E-3,5C000000,-0724,0827,12206,033.1,045.7,0.466,723.1,01.20,0.508
2014-08-21 00:35:00,1925E-3,5C000000,-0724,0826,12115,033.1,045.7,0.466,723.1,01.20,0.508
2014-08-21 00:36:00,1854E-3,5C000000,-0724,0827,12173,033.1,045.7,0.466,723.1,01.20,0.508
2014-08-21 00:37:00,1819E-3,5C000000,-0724,0826,12262,033.0,045.7,0.466,723.2,01.20,0.508
2014-08-21 00:38:00,1833E-3,5C000000,-0724,0828,12346,033.1,045.7,0.466,723.2,01.20,0.508
2014-08-21 00:39:00,1867E-3,5C000000,-0724,0827,12185,033.0,045.7,0.465,723.2,01.20,0.508
2014-08-21 00:40:00,1809E-3,5C000000,-0724,0827,12160,033.0,045.7,0.466,723.1,01.20,0.508
2014-08-21 00:41:00,2024E-3,5C000000,-0724,0825,12233,033.0,045.7,0.466,723.1,01.20,0.508
2014-08-21 00:42:00,1801E-3,5C000000,-0724,0826,12434,033.0,045.7,0.466,723.1,01.20,0.508
2014-08-21 00:43:00,1917E-3,5C000000,-0724,0826,12188,033.0,045.7,0.466,723.2,01.20,0.508
2014-08-21 00:44:00,1832E-3,5C000000,-0724,0827,12387,033.0,045.7,0.466,723.1,01.20,0.508
2014-08-21 00:45:00,1995E-3,5C000000,-0724,0826,12320,033.0,045.6,0.466,723.1,01.20,0.508
2014-08-21 00:46:00,1861E-3,5C000000,-0724,0827,12140,033.0,045.6,0.465,722.9,01.20,0.508
2014-08-21 00:47:00,1706E-3,5C000000,-0724,0827,12277,033.0,045.6,0.466,723.0,01.20,0.508
2014-08-21 00:48:00,1700E-3,5C000000,-0724,0827,12275,033.0,045.6,0.466,723.1,01.20,0.508
2014-08-21 00:49:00,1902E-3,5C000000,-0724,0826,12343,033.0,045.7,0.466,723.0,01.20,0.508
2014-08-21 00:50:00,1887E-3,5C000000,-0724,0827,12319,033.0,045.7,0.466,723.1,01.20,0.508
2014-08-21 00:51:00,1913E-3,5C000000,-0724,0827,11982,033.0,045.7,0.466,723.1,01.20,0.508
2014-08-21 00:52:00,1778E-3,5C000000,-0724,0825,12134,033.0,045.6,0.466,723.1,01.20,0.508
2014-08-21 00:53:00,1771E-3,5C000000,-0724,0827,12316,033.0,045.6,0.466,723.1,01.20,0.508
2014-08-21 00:54:00,1844E-3,5C000000,-0724,0826,12271,033.0,045.7,0.466,723.1,01.20,0.508
2014-08-21 00:55:00,1850E-3,5C000000,-0724,0827,12378,033.0,045.7,0.466,723.1,01.20,0.508
2014-08-21 00:56:00,1835E-3,5C000000,-0724,0827,12181,033.0,045.7,0.466,723.2,01.20,0.508
2014-08-21 00:57:00,1683E-3,5C000000,-0724,0827,12251,033.0,045.7,0.466,723.3,01.20,0.508
2014-08-21 00:58:00,1938E-3,5C000000,-0724,0827,12112,032.9,045.6,0.466,723.2,01.20,0.508
2014-08-21 00:59:00,1712E-3,5C000000,-0724,0826,12350,032.9,045.7,0.466,723.2,01.20,0.508
2014-08-21 01:00:00,1964E-3,5C000000,-0724,0826,12336,032.9,045.7,0.465,723.1,01.20,0.508
2014-08-21 01:01:00,1874E-3,5C000000,-0724,0827,12094,032.9,045.7,0.466,723.1,01.20,0.508
2014-08-21 01:02:00,1721E-3,5C000000,-0724,0827,12222,032.9,045.6,0.466,723.0,01.20,0.508
2014-08-21 01:03:00,1821E-3,5C000000,-0724,0827,12119,032.9,045.7,0.466,723.2,01.20,0.508
2014-08-21 01:04:00,1805E-3,5C000000,-0724,0827,12084,032.9,045.7,0.466,723.1,01.20,0.508
2014-08-21 01:05:00,1869E-3,5C000000,-0724,0827,12257,032.9,045.7,0.466,723.1,01.20,0.508
2014-08-21 01:06:00,1857E-3,5C000000,-0724,0826,12238,032.9,045.6,0.466,723.0,01.20,0.508
2014-08-21 01:07:00,1924E-3,5C000000,-0724,0827,12266,032.9,045.7,0.466,723.0,01.20,0.508
2014-08-21 01:08:00,1776E-3,5C000000,-0724,0826,12250,032.9,045.7,0.466,723.0,01.20,0.508
2014-08-21 01:09:00,1796E-3,5C000000,-0724,0827,12215,032.9,045.7,0.466,723.0,01.20,0.508
2014-08-21 01:10:00,1862E-3,5C000000,-0724,0826,12237,032.8,045.7,0.466,723.0,01.20,0.508
2014-08-21 01:11:00,1798E-3,5C000000,-0724,0826,12141,032.8,045.7,0.466,723.1,01.20,0.508
2014-08-21 01:12:00,1915E-3,5C000000,-0724,0828,12272,032.8,045.7,0.466,723.2,01.20,0.508
2014-08-21 01:13:00,1707E-3,5C000000,-0724,0827,12125,032.8,045.6,0.466,723.1,01.20,0.508
2014-08-21 01:14:00,1678E-3,5C000000,-0724,0827,12263,032.8,045.6,0.466,723.2,01.20,0.508
2014-08-21 01:15:00,1867E-3,5C000000,-0724,0828,12060,032.8,045.7,0.466,723.1,01.20,0.508
2014-08-21 01:16:00,1788E-3,5C000000,-0724,0827,12210,032.8,045.6,0.466,723.2,01.20,0.508
2014-08-21 01:17:00,1847E-3,5C000000,-0724,0826,12256,032.8,045.7,0.466,723.2,01.20,0.508
2014-08-21 01:18:00,1775E-3,5C000000,-0724,0825,12413,032.8,045.7,0.466,723.2,01.20,0.508
2014-08-21 01:19:00,1821E-3,5C000000,-0724,0827,12276,032.8,045.6,0.466,723.3,01.20,0.508
2014-08-21 01:20:00,1774E-3,5C000000,-0724,0826,12138,032.8,045.6,0.466,723.3,01.20,0.508
2014-08-21 01:21:00,1910E-3,5C000000,-0724,0826,12116,032.8,045.6,0.466,723.1,01.20,0.508
2014-08-21 01:22:00,1899E-3,5C000000,-0724,0827,12166,032.8,045.6,0.466,723.2,01.20,0.508
2014-08-21 01:23:00,1844E-3,5C000000,-0724,0827,12216,032.8,045.6,0.466,723.2,01.20,0.508
2014-08-21 01:24:00,1798E-3,5C000000,-0724,0826,12345,032.7,045.7,0.466,723.0,01.20,0.508
2014-08-21 01:25:00,1838E-3,5C000000,-0724,0827,12359,032.7,045.7,0.466,723.0,01.20,0.508
2014-08-21 01:26:00,1948E-3,5C000000,-0724,0827,12308,032.7,045.7,0.466,722.9,01.20,0.508
2014-08-21 01:27:00,1702E-3,5C000000,-0724,0826,12189,032.7,045.6,0.466,723.1,01.20,0.508
2014-08-21 01:28:00,1843E-3,5C000000,-0724,0827,12285,032.7,045.6,0.466,723.0,01.20,0.508
2014-08-21 01:29:00,1746E-3,5C000000,-0724,0827,12189,032.7,045.7,0.466,723.2,01.20,0.508
2014-08-21 01:30:00,1944E-3,5C000000,-0724,0826,11951,032.7,045.6,0.466,722.9,01.20,0.508
2014-08-21 01:31:00,1912E-3,5C000000,-0724,0827,12169,032.7,045.7,0.466,723.0,01.20,0.508
2014-08-21 01:32:00,1923E-3,5C000000,-0724,0826,12156,032.7,045.7,0.466,723.2,01.20,0.508
2014-08-21 01:33:00,1773E-3,5C000000,-0724,0827,12189,032.7,045.6,0.467,723.1,01.20,0.508
2014-08-21 01:34:00,1830E-3,5C000000,-0724,0827,12125,032.7,045.6,0.467,723.3,01.20,0.508
2014-08-21 01:35:00,1819E-3,5C000000,-0724,0827,12327,032.7,045.6,0.466,723.3,01.20,0.508
2014-08-21 01:36:00,1858E-3,5C000000,-0724,0826,12337,032.7,045.7,0.466,723.4,01.20,0.508
2014-08-21 01:37:00,1849E-3,5C000000,-0724,0827,12211,032.7,045.7,0.466,723.1,01.20,0.508
2014-08-21 01:38:00,1878E-3,5C000000,-0724,0826,12108,032.7,045.7,0.466,723.3,01.20,0.508
2014-08-21 01:39:00,1917E-3,5C000000,-0724,0827,12204,032.7,045.6,0.466,723.2,01.20,0.508
2014-08-21 01:40:00,1823E-3,5C000000,-0724,0826,12019,032.6,045.7,0.466,723.4,01.20,0.508
2014-08-21 01:41:00,1850E-3,5C000000,-0724,0826,12264,032.7,045.7,0.466,723.4,01.20,0.508
2014-08-21 01:42:00,1864E-3,5C000000,-0724,0827,12329,032.6,045.6,0.466,723.5,01.20,0.508
2014-08-21 01:43:00,1741E-3,5C000000,-0724,0826,12265,032.6,045.6,0.467,723.4,01.20,0.508
2014-08-21 01:44:00,1875E-3,5C000000,-0724,0826,12100,032.6,045.6,0.467,723.3,01.20,0.508
2014-08-21 01:45:00,1833E-3,5C000000,-0724,0827,12285,032.6,045.6,0.467,723.5,01.20,0.508
2014-08-21 01:46:00,1653E-3,5C000000,-0724,0826,12258,032.6,045.6,0.467,723.7,01.20,0.508
2014-08-21 01:47:00,1646E-3,5C000000,-0724,0828,12347,032.6,045.6,0.467,723.5,01.20,0.508
2014-08-21 01:48:00,1809E-3,5C000000,-0724,0826,12193,032.6,045.7,0.466,723.5,01.20,0.508
2014-08-21 01:49:00,1771E-3,5C000000,-0724,0827,12018,032.6,045.7,0.466,723.7,01.20,0.508
2014-08-21 01:50:00,1815E-3,5C000000,-0724,0826,12206,032.6,045.6,0.466,723.7,01.20,0.508
2014-08-21 01:51:00,1857E-3,5C000000,-0724,0826,12150,032.6,045.6,0.466,723.7,01.20,0.508
2014-08-21 01:52:00,1781E-3,5C000000,-0724,0826,12079,032.6,045.7,0.466,723.7,01.20,0.508
2014-08-21 01:53:00,1770E-3,5C000000,-0724,0827,12158,032.6,045.7,0.467,723.9,01.20,0.508
2014-08-21 01:54:00,1893E-3,5C000000,-0724,0827,12316,032.5,045.7,0.467,723.7,01.20,0.508
2014-08-21 01:55:00,1795E-3,5C000000,-0724,0826,12297,032.5,045.6,0.467,723.8,01.20,0.508
2014-08-21 01:56:00,1948E-3,5C000000,-0724,0826,12173,032.5,045.6,0.467,724.0,01.20,0.508
2014-08-21 01:57:00,1744E-3,5C000000,-0724,0827,12196,032.5,045.6,0.467,723.9,01.20,0.508
2014-08-21 01:58:00,1821E-3,5C000000,-0724,0827,12326,032.5,045.6,0.467,723.9,01.20,0.508
2014-08-21 01:59:00,1699E-3,5C000000,-0724,0826,12318,032.5,045.6,0.467,724.1,01.20,0.508
2014-08-21 02:00:00,1855E-3,5C000000,-0724,0827,12162,032.5,045.6,0.467,724.0,01.20,0.508
2014-08-21 02:01:00,1877E-3,5C000000,-0724,0827,12273,032.5,045.6,0.467,724.0,01.20,0.508
2014-08-21 02:02:00,1846E-3,5C000000,-0724,0825,12246,032.5,045.6,0.466,724.0,01.20,0.508
2014-08-21 02:03:00,2003E-3,5C000000,-0724,0826,12280,032.5,045.6,0.467,724.0,01.20,0.508
2014-08-21 02:04:00,1840E-3,5C000000,-0724,0826,12097,032.5,045.7,0.467,723.9,01.20,0.508
2014-08-21 02:05:00,1899E-3,5C000000,-0724,0827,12207,032.5,045.6,0.467,723.9,01.20,0.508
2014-08-21 02:06:00,1718E-3,5C000000,-0724,0828,12213,032.5,045.6,0.467,723.9,01.20,0.508
2014-08-21 02:07:00,1823E-3,5C000000,-0724,0827,12163,032.5,045.6,0.467,723.9,01.20,0.508
2014-08-21 02:08:00,1814E-3,5C000000,-0724,0827,12270,032.5,045.7,0.467,723.9,01.20,0.508
2014-08-21 02:09:00,1924E-3,5C000000,-0724,0827,12418,032.5,045.7,0.467,723.9,01.20,0.508
2014-08-21 02:10:00,1913E-3,5C000000,-0724,0826,12068,032.4,045.6,0.467,723.8,01.20,0.508
2014-08-21 02:11:00,1858E-3,5C000000,-0724,0826,12217,032.4,045.6,0.467,723.9,01.20,0.508
2014-08-21 02:12:00,1809E-3,5C000000,-0724,0827,12018,032.4,045.6,0.467,723.9,01.20,0.508
2014-08-21 02:13:00,1820E-3,5C000000,-0724,0826,12374,032.4,045.6,0.467,723.7,01.20,0.508
2014-08-21 02:14:00,1811E-3,5C000000,-0724,0826,12239,032.4,045.7,0.466,723.7,01.20,0.508
2014-08-21 02:15:00,1894E-3,5C000000,-0724,0826,12342,032.4,045.6,0.467,723.8,01.20,0.508
2014-08-21 02:16:00,1760E-3,5C000000,-0724,0826,12355,032.4,045.6,0.467,723.8,01.20,0.508
2014-08-21 02:17:00,1905E-3,5C000000,-0724,0826,12193,032.4,045.6,0.467,723.6,01.20,0.508
2014-08-21 02:18:00,1705E-3,5C000000,-0724,0827,12372,032.4,045.6,0.467,723.7,01.20,0.508
2014-08-21 02:19:00,1979E-3,5C000000,-0724,0826,12294,032.4,045.6,0.467,723.8,01.20,0.508
2014-08-21 02:20:00,1857E-3,5C000000,-0724,0828,12219,032.4,045.6,0.467,723.8,01.20,0.508
2014-08-21 02:21:00,1834E-3,5C000000,-0724,0827,12195,032.4,045.6,0.467,723.8,01.20,0.508
2014-08-21 02:22:00,1983E-3,5C000000,-0724,0827,12392,032.4,045.6,0.467,723.9,01.20,0.508
2014-08-21 02:23:00,1881E-3,5C000000,-0724,0826,12038,032.4,045.6,0.467,723.9,01.20,0.508
2014-08-21 02:24:00,1879E-3,5C000000,-0724,0826,12344,032.3,045.6,0.467,724.0,01.20,0.508
2014-08-21 02:25:00,1859E-3,5C000000,-0724,0826,12158,032.3,045.6,0.467,724.1,01.20,0.508
2014-08-21 02:26:00,1877E-3,5C000000,-0724,0827,12222,032.3,045.6,0.467,724.0,01.20,0.508
2014-08-21 02:27:00,1878E-3,5C000000,-0724,0826,12221,032.3,045.6,0.467,724.0,01.20,0.508
2014-08-21 02:28:00,1963E-3,5C000000,-0724,0827,12338,032.3,045.6,0.467,724.1,01.20,0.508
2014-08-21 02:29:00,1868E-3,5C000000,-0724,0827,12243,032.3,045.6,0.467,723.9,01.20,0.508
2014-08-21 02:30:00,1781E-3,5C000000,-0724,0827,12128,032.3,045.6,0.467,724.2,01.19,0.508
2014-08-21 02:31:00,1806E-3,5C000000,-0724,0827,12158,032.3,045.6,0.467,724.1,01.20,0.508
2014-08-21 02:32:00,1810E-3,5C000000,-0724,0827,12505,032.3,045.6,0.467,724.2,01.19,0.508
2014-08-21 02:33:00,1727E-3,5C000000,-0724,0827,12039,032.3,045.6,0.467,724.1,01.20,0.508
2014-08-21 02:34:00,1812E-3,5C000000,-0724,0827,12266,032.3,045.6,0.467,723.9,01.20,0.508
2014-08-21 02:35:00,1963E-3,5C000000,-0724,0827,12268,032.3,045.6,0.467,723.9,01.20,0.508
2014-08-21 02:36:00,1993E-3,5C000000,-0724,0828,12423,032.2,045.6,0.467,724.0,01.20,0.508
2014-08-21 02:37:00,1737E-3,5C000000,-0724,0826,12248,032.3,045.6,0.467,723.9,01.20,0.508
2014-08-21 02:38:00,1841E-3,5C000000,-0724,0827,12111,032.2,045.6,0.467,724.0,01.20,0.508
2014-08-21 02:39:00,1897E-3,5C000000,-0724,0826,12340,032.2,045.6,0.467,723.9,01.20,0.508
2014-08-21 02:40:00,1847E-3,5C000000,-0724,0827,12202,032.2,045.6,0.467,724.1,01.20,0.508
2014-08-21 02:41:00,1876E-3,5C000000,-0724,0828,12285,032.2,045.6,0.467,723.9,01.20,0.508
2014-08-21 02:42:00,1896E-3,5C000000,-0724,0827,12096,032.2,045.6,0.467,723.9,01.20,0.508
2014-08-21 02:43:00,1822E-3,5C000000,-0724,0825,12230,032.2,045.6,0.467,723.8,01.20,0.508
2014-08-21 02:44:00,1910E-3,5C000000,-0724,0827,12120,032.2,045.6,0.467,723.8,01.20,0.508
2014-08-21 02:45:00,1777E-3,5C000000,-0724,0827,12181,032.2,045.6,0.467,724.0,01.20,0.508
2014-08-21 02:46:00,1834E-3,5C000000,-0724,0828,12196,032.2,045.6,0.467,724.0,01.20,0.508
2014-08-21 02:47:00,1890E-3,5C000000,-0724,0827,12294,032.2,045.6,0.467,724.2,01.19,0.508
2014-08-21 02:48:00,1826E-3,5C000000,-0724,0826,12229,032.2,045.6,0.467,723.9,01.20,0.508
2014-08-21 02:49:00,1763E-3,5C000000,-0724,0826,12306,032.2,045.6,0.467,724.1,01.20,0.508
2014-08-21 02:50:00,1869E-3,5C000000,-0724,0827,12212,032.2,045.6,0.467,723.9,01.20,0.508
2014-08-21 02:51:00,1823E-3,5C000000,-0724,0826,12189,032.1,045.6,0.468,724.0,01.20,0.508
2014-08-21 02:52:00,1907E-3,5C000000,-0724,0827,12242,032.1,045.6,0.468,724.0,01.20,0.508
2014-08-21 02:53:00,1852E-3,5C000000,-0724,0826,12270,032.1,045.6,0.468,724.0,01.20,0.508
2014-08-21 02:54:00,1782E-3,5C000000,-0724,0827,12237,032.1,045.6,0.468,723.8,01.20,0.508
2014-08-21 02:55:00,1753E-3,5C000000,-0724,0826,12078,032.1,045.6,0.468,723.9,01.20,0.508
2014-08-21 02:56:00,1736E-3,5C000000,-0724,0827,12081,032.1,045.6,0.467,723.7,01.20,0.508
2014-08-21 02:57:00,1762E-3,5C000000,-0724,0826,12229,032.1,045.6,0.468,724.1,01.20,0.508
2014-08-21 02:58:00,1876E-3,5C000000,-0724,0827,12257,032.1,045.6,0.468,724.3,01.19,0.508
2014-08-21 02:59:00,1807E-3,5C000000,-0724,0827,12273,032.1,045.6,0.468,724.3,01.19,0.508
2014-08-21 03:00:00,1843E-3,5C000000,-0724,0827,12184,032.1,045.6,0.468,724.3,01.19,0.508
2014-08-21 03:01:00,1742E-3,5C000000,-0724,0826,12273,032.1,045.6,0.467,724.3,01.19,0.508
2014-08-21 03:02:00,1772E-3,5C000000,-0724,0827,12271,032.1,045.6,0.467,723.9,01.20,0.508
2014-08-21 03:03:00,1921E-3,5C000000,-0724,0826,12286,032.1,045.6,0.467,724.3,01.19,0.508
2014-08-21 03:04:00,1846E-3,5C000000,-0724,0827,12235,032.1,045.6,0.467,724.5,01.19,0.508
2014-08-21 03:05:00,1802E-3,5C000000,-0724,0826,12152,032.0,045.6,0.467,724.3,01.19,0.508
2014-08-21 03:06:00,1827E-3,5C000000,-0724,0825,12254,032.0,045.6,0.467,724.5,01.19,0.508
2014-08-21 03:07:00,1904E-3,5C000000,-0724,0826,12187,032.0,045.6,0.468,724.4,01.19,0.508
2014-08-21 03:08:00,1766E-3,5C000000,-0724,0826,11991,032.0,045.6,0.468,724.4,01.19,0.508
2014-08-21 03:09:00,1777E-3,5C000000,-0724,0826,12344,032.0,045.6,0.468,724.5,01.19,0.508
2014-08-21 03:10:00,1849E-3,5C000000,-0724,0827,12223,032.0,045.6,0.468,724.7,01.19,0.508
2014-08-21 03:11:00,1776E-3,5C000000,-0724,0826,12289,032.0,045.6,0.468,724.6,01.19,0.508
2014-08-21 03:12:00,1884E-3,5C000000,-0724,0827,12114,032.0,045.6,0.468,724.6,01.19,0.508
2014-08-21 03:13:00,1846E-3,5C000000,-0724,0826,12204,032.0,045.6,0.468,724.7,01.19,0.508
2014-08-21 03:14:00,1769E-3,5C000000,-0724,0826,11988,032.0,045.6,0.468,724.5,01.19,0.508
2014-08-21 03:15:00,1873E-3,5C000000,-0724,0826,12187,032.0,045.6,0.468,724.5,01.19,0.508
2014-08-21 03:16:00,1773E-3,5C000000,-0724,0827,12263,032.0,045.6,0.468,724.8,01.19,0.508
2014-08-21 03:17:00,1942E-3,5C000000,-0724,0826,12310,032.0,045.6,0.467,724.8,01.19,0.508
2014-08-21 03:18:00,1739E-3,5C000000,-0724,0827,12122,032.0,045.6,0.468,724.7,01.19,0.508
2014-08-21 03:19:00,1763E-3,5C000000,-0724,0826,12305,032.0,045.6,0.467,724.5,01.19,0.508
2014-08-21 03:20:00,1868E-3,5C000000,-0724,0826,12440,031.9,045.6,0.468,724.5,01.19,0.508
2014-08-21 03:21:00,1837E-3,5C000000,-0724,0827,12319,031.9,045.6,0.468,724.5,01.19,0.508
2014-08-21 03:22:00,1783E-3,5C000000,-0724,0827,12401,031.9,045.6,0.468,724.5,01.19,0.508
2014-08-21 03:23:00,1830E-3,5C000000,-0724,0826,12100,031.9,045.6,0.468,724.5,01.19,0.508
2014-08-21 03:24:00,1758E-3,5C000000,-0724,0826,12272,031.9,045.6,0.468,724.4,01.19,0.508
2014-08-21 03:25:00,1823E-3,5C000000,-0724,0826,12145,031.9,045.6,0.468,724.5,01.19,0.508
2014-08-21 03:26:00,1776E-3,5C000000,-0724,0826,12333,031.9,045.6,0.468,724.8,01.19,0.508
2014-08-21 03:27:00,1868E-3,5C000000,-0724,0826,12235,031.9,045.6,0.468,724.6,01.19,0.508
2014-08-21 03:28:00,1799E-3,5C000000,-0724,0826,12137,031.9,045.6,0.468,724.7,01.19,0.508
2014-08-21 03:29:00,1803E-3,5C000000,-0724,0826,12215,031.9,045.6,0.468,724.8,01.19,0.508
2014-08-21 03:30:00,1784E-3,5C000000,-0724,0826,12019,031.9,045.6,0.468,724.7,01.19,0.508
2014-08-21 03:31:00,1824E-3,5C000000,-0724,0827,12180,031.8,045.6,0.468,724.7,01.19,0.508
2014-08-21 03:32:00,1701E-3,5C000000,-0724,0826,12333,031.8,045.6,0.468,724.6,01.19,0.508
2014-08-21 03:33:00,1779E-3,5C000000,-0724,0827,12362,031.8,045.6,0.468,724.6,01.19,0.508
2014-08-21 03:34:00,1721E-3,5C000000,-0724,0827,12344,031.8,045.6,0.468,724.4,01.19,0.508
2014-08-21 03:35:00,1885E-3,5C000000,-0724,0826,12261,031.8,045.6,0.468,724.9,01.19,0.508
2014-08-21 03:36:00,1868E-3,5C000000,-0724,0827,12043,031.8,045.6,0.468,724.9,01.19,0.508
2014-08-21 03:37:00,1893E-3,5C000000,-0724,0827,12237,031.8,045.6,0.468,725.0,01.19,0.508
2014-08-21 03:38:00,1735E-3,5C000000,-0724,0827,12361,031.8,045.6,0.468,724.7,01.19,0.508
2014-08-21 03:39:00,1915E-3,5C000000,-0724,0826,12125,031.8,045.6,0.468,725.1,01.19,0.508
2014-08-21 03:40:00,1725E-3,5C000000,-0724,0826,12352,031.8,045.6,0.468,725.0,01.19,0.508
2014-08-21 03:41:00,1763E-3,5C000000,-0724,0826,12146,031.8,045.6,0.469,725.1,01.19,0.508
2014-08-21 03:42:00,1818E-3,5C000000,-0724,0826,12388,031.8,045.6,0.468,725.0,01.19,0.508
2014-08-21 03:43:00,1886E-3,5C000000,-0724,0827,12289,031.8,045.6,0.468,725.2,01.19,0.508
2014-08-21 03:44:00,1830E-3,5C000000,-0724,0825,12113,031.8,045.6,0.468,725.2,01.19,0.508
2014-08-21 03:45:00,1847E-3,5C000000,-0724,0826,12173,031.7,045.6,0.468,725.1,01.19,0.508
2014-08-21 03:46:00,1858E-3,5C000000,-0724,0826,12040,031.8,045.6,0.468,725.2,01.19,0.508
2014-08-21 03:47:00,1783E-3,5C000000,-0724,0827,12281,031.8,045.6,0.468,725.1,01.19,0.508
2014-08-21 03:48:00,1826E-3,5C000000,-0724,0826,12167,031.8,045.6,0.468,725.2,01.19,0.508
2014-08-21 03:49:00,1860E-3,5C000000,-0724,0826,12210,031.7,045.6,0.468,725.2,01.19,0.508
2014-08-21 03:50:00,1695E-3,5C000000,-0724,0827,12404,031.7,045.6,0.468,725.2,01.19,0.508
2014-08-21 03:51:00,1797E-3,5C000000,-0724,0826,12287,031.7,045.6,0.468,725.4,01.19,0.508
2014-08-21 03:52:00,1962E-3,5C000000,-0724,0828,12172,031.7,045.6,0.469,725.2,01.19,0.508
2014-08-21 03:53:00,1873E-3,5C000000,-0724,0826,12240,031.7,045.6,0.469,725.2,01.19,0.508
2014-08-21 03:54:00,1759E-3,5C000000,-0724,0826,12116,031.7,045.6,0.469,725.3,01.19,0.508
2014-08-21 03:55:00,1724E-3,5C000000,-0724,0827,12069,031.7,045.6,0.468,725.0,01.19,0.508
2014-08-21 03:56:00,1710E-3,5C000000,-0724,0826,12403,031.7,045.6,0.468,724.9,01.19,0.508
2014-08-21 03:57:00,1812E-3,5C000000,-0724,0827,12151,031.7,045.6,0.468,725.2,01.19,0.508
2014-08-21 03:58:00,1723E-3,5C000000,-0724,0827,12177,031.7,045.6,0.468,725.2,01.19,0.508
2014-08-21 03:59:00,1917E-3,5C000000,-0724,0827,12247,031.7,045.6,0.468,725.4,01.19,0.508
2014-08-21 04:00:00,1898E-3,5C000000,-0724,0826,12249,031.7,045.6,0.468,725.3,01.19,0.508
2014-08-21 04:01:00,1776E-3,5C000000,-0724,0826,12199,031.7,045.6,0.468,725.3,01.19,0.508
2014-08-21 04:02:00,1755E-3,5C000000,-0724,0827,12291,031.6,045.6,0.468,725.2,01.19,0.508
2014-08-21 04:03:00,1913E-3,5C000000,-0724,0826,12330,031.7,045.6,0.468,725.0,01.19,0.508
2014-08-21 04:04:00,1868E-3,5C000000,-0724,0826,12253,031.6,045.6,0.468,725.1,01.19,0.508
2014-08-21 04:05:00,1873E-3,5C000000,-0724,0825,11949,031.6,045.6,0.469,725.3,01.19,0.508
2014-08-21 04:06:00,1873E-3,5C000000,-0724,0827,12273,031.6,045.6,0.469,725.1,01.19,0.508
2014-08-21 04:07:00,1965E-3,5C000000,-0724,0826,12334,031.6,045.6,0.469,725.4,01.19,0.508
2014-08-21 04:08:00,1829E-3,5C000000,-0724,0826,12322,031.7,045.6,0.469,725.4,01.19,0.508
2014-08-21 04:09:00,1708E-3,5C000000,-0724,0826,12298,031.6,045.6,0.468,725.3,01.19,0.508
2014-08-21 04:10:00,1843E-3,5C000000,-0724,0826,12347,031.6,045.6,0.468,725.4,01.19,0.508
2014-08-21 04:11:00,1966E-3,5C000000,-0724,0826,12414,031.6,045.6,0.468,725.1,01.19,0.508
2014-08-21 04:12:00,1680E-3,5C000000,-0724,0827,12246,031.6,045.6,0.468,725.2,01.19,0.508
2014-08-21 04:13:00,1800E-3,5C000000,-0724,0826,12310,031.6,045.6,0.468,724.9,01.19,0.508
2014-08-21 04:14:00,1878E-3,5C000000,-0724,0826,12104,031.6,045.6,0.468,725.0,01.19,0.508
2014-08-21 04:15:00,1762E-3,5C000000,-0724,0825,12333,031.6,045.6,0.468,725.1,01.19,0.508
2014-08-21 04:16:00,1885E-3,5C000000,-0724,0826,12222,031.6,045.6,0.468,725.1,01.19,0.508
2014-08-21 04:17:00,1812E-3,5C000000,-0724,0827,11917,031.6,045.6,0.469,725.1,01.19,0.508
2014-08-21 04:18:00,1726E-3,5C000000,-0724,0826,12376,031.6,045.6,0.469,725.0,01.19,0.508
2014-08-21 04:19:00,2038E-3,5C000000,-0724,0826,12261,031.6,045.6,0.469,725.2,01.19,0.508
2014-08-21 04:20:00,1789E-3,5C000000,-0724,0827,12213,031.5,045.6,0.469,725.2,01.19,0.508